This is the latest recevied weather packets stored in our database for station/object K42C. If no packets are shown the sender has not sent any weather packets the latest 10 day(s).
| Time | Temp. | Humidity | Pressure | Rain* | Wind** | Luminosity | Snow |
|---|---|---|---|---|---|---|---|
| 1777924020 | 22.22° C | 33% | 961.3 hPa | 0 mm | 3.58 m/s, 212° | - | - |
| 1777923622 | 22.78° C | 32% | 961.2 hPa | 0 mm | 4.47 m/s, 181° | - | - |
| 1777923222 | 22.78° C | 32% | 961.4 hPa | 0 mm | 5.36 m/s, 186° | - | - |
| 1777922824 | 22.78° C | 31% | 961.2 hPa | 0 mm | 3.58 m/s, 242° | - | - |
| 1777922423 | 22.78° C | 32% | 961.4 hPa | 0 mm | 4.02 m/s, 226° | - | - |
| 1777922026 | 22.78° C | 32% | 961.4 hPa | 0 mm | 4.47 m/s, 250° | - | - |
| 1777921625 | 22.78° C | 31% | 961.3 hPa | 0 mm | 4.47 m/s, 242° | - | - |
| 1777921228 | 22.78° C | 30% | 961.4 hPa | 0 mm | 5.81 m/s, 219° | - | - |
| 1777920827 | 22.78° C | 30% | 961.4 hPa | 0 mm | 4.92 m/s, 187° | - | - |
| 1777920430 | 22.78° C | 29% | 961.5 hPa | 0 mm | 5.81 m/s, 211° | - | - |
| 1777920029 | 22.78° C | 31% | 961.5 hPa | 0 mm | 4.02 m/s, 208° | - | - |
| 1777919632 | 22.78° C | 31% | 961.6 hPa | 0 mm | 4.47 m/s, 183° | - | - |
| 1777919231 | 22.78° C | 31% | 961.5 hPa | 0 mm | 4.47 m/s, 205° | - | - |
| 1777918833 | 22.78° C | 31% | 961.5 hPa | 0 mm | 4.47 m/s, 246° | - | - |
| 1777918433 | 22.78° C | 31% | 961.6 hPa | 0 mm | 4.02 m/s, 207° | - | - |
| 1777918035 | 22.78° C | 32% | 961.7 hPa | 0 mm | 2.24 m/s, 266° | - | - |
| 1777917237 | 22.22° C | 32% | 961.8 hPa | 0 mm | 3.58 m/s, 250° | - | - |
| 1777916836 | 22.22° C | 30% | 961.8 hPa | 0 mm | 6.26 m/s, 215° | - | - |
| 1777916439 | 22.78° C | 30% | 961.9 hPa | 0 mm | 6.26 m/s, 277° | - | - |
| 1777916038 | 22.22° C | 33% | 961.9 hPa | 0 mm | 3.13 m/s, 232° | - | - |
| 1777915641 | 22.22° C | 34% | 961.9 hPa | 0 mm | 5.36 m/s, 205° | - | - |
| 1777915240 | 22.22° C | 33% | 962 hPa | 0 mm | 3.58 m/s, 238° | - | - |
| 1777914843 | 22.22° C | 35% | 962.2 hPa | 0 mm | 4.47 m/s, 205° | - | - |
| 1777914442 | 21.67° C | 36% | 962.4 hPa | 0 mm | 2.68 m/s, 215° | - | - |
| 1777914045 | 21.67° C | 35% | 962.6 hPa | 0 mm | 3.13 m/s, 226° | - | - |
* Rain latest hour (hover to see other rain measurements)
** Current wind speed in m/s (hover to see current wind gust speed)